Volver al catálogo

YAMAL 102

ActivoComunicacionesGEO
NORAD 25897·PAYLOAD·🇷🇺 Russia

Lanzado Sep 6, 1999 desde Baikonur Cosmodrome

Loading…

TLE

ActualizadoSource: Space-Track

Época: Sep 14, 2026, 14:37 UTC

1 25897U 99047B   26257.60907449 -.00000090  00000-0  00000-0 0  9991
2 25897  13.7621  12.0168 0001070   1.9386  10.8392  1.00001037 98895

Sigue YAMAL 102 en tiempo real con AllMySat

Download on the App Store